EHI
0 0 0 0 0 0 0 0 0 0 0 0 0 0 0 0 0 0 0 0 0 0 0 0 0 0 0 0 0 0 0 0 0 0 0 0 0 0 0 0 0 0 0 0
0 0 0 0 0 0 0 0 0 0 0 0 0 0 0 0 0 0 0 0 0 0 0 0 0 0 0 0 0 0 0 0 0 0 0 0 0 0 0 0 0 0 0 0
0 0 0 0 0 0 0 0 0 0 0 0 0 0 0 0 0 0 0 0 0 0 0 0 0 0 0 0 0 0 0 0 0 0 0 0 0 0 0 0 0 0 0 0
0 0 0 0 0 0 0 0 0 0 0 0 0 0 0 0 0 0 0 0 0 0 0 0 0 0 0 0 0 0 0 0 0 0 0 0 0 0 0 0 0 0 0 0
0 0 0 0 0 0 0 0 0 0 0 0 0 0 0 0 0 0 0 0 0 0 0 0 0 0 0 0 0 0 0 0 0 0 0 0 0 0 0 0 0 0 0 0
0 0 0 0 0 0 0 0 0 0 0 0 0 0 0 0 0 0 0 0 0 0 0 0 0 0 0 0 0 0 0 0 0 0 0 0 0 0 0 0 0 0 0 0
0 0 0 0 0 0 0 0 0 0 0 0 0 0 0 0 0 0 0 0 0 0 0 0 0 0 0 0 0 0 0 0 0 0 0 0 0 0 0 0 0 0 0 0
0 0 0 0 0 0 0 0 0 0 0 0 0 0 0 0 0 0 0 0 0 0 0 0 0 0 0 0 0 0 0 0 0 0 0 0 0 0 0 0 0 0 0 0
0 0 0 0 0 0 0 0 0 0 0 0 0 0 0 0 0 0 0 0 0 0 0 0 0 0 0 0 0 0 0 0 0 0 0 0 0 0 0 0 0 0 0 0
0 0 0 0 0 0 0 0 0 0 0 0 0 0 0 0 0 0 0 0 0 0 0 0 0 0 0 0 0 0 0 0 0 0 0 0 0 0 0 0 0 0 0 0
0 0 0 0 0 0 0 0 0 0 0 0 0 0 0 0 0 0 0 0 0 0 0 0 0 0 0 0 0 0 0 0 0 0 0 0 0 0 0 0 0 0 0 0
0 0 0 0 0 0 0 0 0 0 0 0 0 0 0 0 0 0 0 0 0 0 0 0 0 0 0 0 0 0 0 0 0 0 0 0 0 0 0 0 0 0 0 0
0 0 0 0 0 0 0 0 0 0 0 0 0 0 0 0 0 0 0 0 0 0 0 0 0 0 0 0 0 0 0 0 0 0 0 0 0 0 0 0 0 0 0 0
0 0 0 0 0 0 0 0 0 0 0 0 0 0 0 0 0 0 0 0 0 0 0 0 0 0 0 0 0 0 0 0 0 0 0 0 0 0 0 0 0 0 0 0
0 0 0 0 0 0 0 0 0 0 0 0 0 0 0 0 0 0 0 0 0 0 0 0 0 0 0 0 0 0 0 0 0 0 0 0 0 0 0 0 0 0 0 0
0 0 0 0 0 0 0 0 0 0 0 0 0 0 0 0 0 0 0 0 0 0 0 0 0 0 0 0 0 0 0 0 0 0 0 0 0 0 0 0 0 0 0 0
0 0 0 0 0 0 0 0 0 0 0 0 0 0 0 0 0 0 0 0 0 0 0 0 0 0 0 0 0 0 0 0 0 0 0 0 0 0 0 0 0 0 0 0
0 0 0 0 0 0 0 0 0 0 0 0 0 0 0 0 0 0 0 0 0 0 0 0 0 0 0 0 0 0 0 0 0 0 0 0 0 0 0 0 0 0 0 0
0 0 0 0 0 0 0 0 0 0 0 0 0 0 0 0 0 0 0 0 0 0 0 0 0 0 0 0 0 0 0 0 0 0 0 0 0 0 0 0 0 0 0 0
0 0 0 0 0 0 0 0 0 0 0 0 0 0 0 0 0 0 0 0 0 0 0 0 0 0 0 0 0 0 0 0 0 0 0 0 0 0 0 0 0 0 0 0
0 0 0 0 0 0 0 0 0 0 0 0 0 0 0 0 0 0 0 0 0 0 0 0 0 0 0 0 0 0 0 0 0 0 0 0 0 0 0 0 0 0 0 0
0 0 0 0 0 0 0 0 0 0 0 0 0 0 0 0 0 0 0 0 0 0 0 0 0 0 0 0 0 0 0 0 0 0 0 0 0 0 0 0 0 0 0 0
0 0 0 0 0 0 0 0 0 0 0 0 0 0 0 0 0 0 0 0 0 0 0 0 0 0 0 0 0 0 0 0 0 0 0 0 0 0 0 0 0 0 0 0
0 0 0 0 0 0 0 0 0 0 0 0 0 0 0 0 0 0 0 0 0 0 0 0 0 0 0 0 0 0 0 0 0 0 0 0 0 0 0 0 0 0 0 0
0 0 0 0 0 0 0 0 0 0 0 0 0 0 0 0 0 0 0 0 0 0 0 0 0 0 0 0 0 0 0 0 0 0 0 0 0 0 0 0 0 0 0 0
0 0 0 0 0 0 0 0 0 0 0 0 0 0 0 0 0 0 0 0 0 0 0 0 0 0 0 0 0 0 0 0 0 0 0 0 0 0 0 0 0 0 0 0
0 0 0 0 0 0 0 0 0 0 0 0 0 0 0 0 0 0 0 0 0 0 0 0 0 0 0 0 0 0 0 0 0 0 0 0 0 0 0 0 0 0 0 0
Wind_Speed
6 6 4 5 5 5 8 7 6 7 7 7 5 5 5 5 5 6 6 6 6 6 6 5 4 3 2 1 1 0 0 1 1 0 0 1 0 0 0 0 1 0 1 1
5 4 3 5 5 6 7 7 8 9 11 6 5 4 5 5 6 7 7 7 7 6 6 6 4 4 3 2 1 1 1 0 0 0 1 0 1 1 1 0 0 1 1 1
3 2 3 6 6 7 5 5 5 7 7 6 6 6 6 6 5 6 6 6 6 5 5 5 4 4 3 2 1 1 1 1 1 1 1 1 1 1 1 1 1 1 1 1
2 3 4 4 1 2 4 4 4 5 6 6 7 7 4 4 4 5 6 5 5 5 5 5 4 4 3 3 2 2 1 1 2 2 1 1 1 1 1 1 1 1 1 1
1 3 5 2 1 1 1 4 3 5 7 7 7 5 3 4 5 5 5 4 4 4 4 4 4 3 3 3 3 2 2 2 2 2 2 2 2 1 1 1 1 1 1 2
2 3 4 2 1 1 1 3 3 2 5 5 5 4 4 6 6 6 5 5 4 4 3 3 3 3 3 3 3 3 2 2 2 2 1 1 1 1 1 1 1 1 2 2
4 4 5 1 1 1 1 4 4 2 3 3 2 4 5 5 5 5 5 5 5 4 3 3 3 3 3 3 3 2 2 2 3 2 1 1 1 1 2 1 1 2 2 1
3 4 6 1 3 2 3 2 3 3 3 3 4 5 5 5 5 5 5 5 5 4 3 4 3 3 3 3 2 3 3 3 3 2 2 2 2 2 2 1 1 2 2 1
5 5 2 3 3 2 0 2 3 3 4 4 4 4 5 4 4 4 5 4 4 3 4 4 4 3 3 3 3 3 3 3 3 3 2 2 2 1 1 1 1 1 1 1
3 5 3 3 2 2 2 3 3 3 3 3 3 4 4 4 4 4 4 4 4 3 4 4 4 3 2 2 3 3 3 3 3 3 3 2 2 1 1 1 1 1 1 1
5 5 4 3 3 3 3 3 3 3 3 3 3 4 4 4 3 3 3 4 3 3 3 3 3 3 3 2 2 2 2 2 2 2 2 2 2 2 1 1 0 0 0 0
5 3 3 3 1 1 2 3 3 3 3 3 2 3 3 3 3 3 3 3 3 3 3 3 3 3 3 3 2 1 2 2 2 2 2 1 1 2 4 2 3 3 2 2
3 2 2 3 2 1 1 2 2 1 2 3 3 2 2 3 3 3 3 3 3 3 2 3 3 3 3 2 2 2 1 2 1 1 1 1 1 1 1 3 3 3 3 3
2 1 3 2 2 2 1 2 2 2 2 2 2 2 2 2 3 3 3 3 2 2 2 2 2 3 2 2 2 2 2 2 2 1 1 1 1 1 1 1 2 2 2 3
3 2 3 2 2 2 1 1 2 2 3 3 2 2 2 2 3 3 3 2 2 2 2 2 3 3 3 2 2 2 2 1 1 1 1 2 1 1 1 1 1 1 1 2
2 2 1 2 2 2 1 1 1 2 3 3 3 3 2 2 2 2 2 2 2 2 2 2 3 3 2 2 2 2 1 3 2 1 1 2 2 1 1 1 1 1 1 1
2 2 2 2 3 2 2 2 2 2 2 2 3 3 2 2 2 3 3 2 2 2 2 2 2 3 2 2 1 1 1 2 3 2 1 1 1 1 1 1 1 1 1 2
3 3 2 2 2 2 2 1 1 1 2 2 2 2 2 2 2 3 3 3 2 2 2 2 2 2 2 2 1 1 1 1 1 1 1 1 1 1 1 1 1 1 1 2
1 1 1 1 1 1 1 1 1 1 1 1 1 2 2 2 2 2 2 2 2 3 3 3 4 3 2 2 2 1 1 1 1 1 1 1 2 1 1 1 1 1 1 1
1 1 0 0 0 0 1 1 1 1 1 1 1 1 2 2 2 2 2 1 1 2 2 2 2 2 2 1 2 1 1 1 1 1 1 1 1 1 1 1 1 1 1 1
1 1 1 0 1 1 1 1 1 1 1 1 1 2 2 3 2 2 1 2 3 2 2 3 2 1 1 2 2 1 1 1 1 1 1 1 1 1 1 1 1 1 1 1
2 1 1 1 1 1 1 1 1 1 1 1 2 1 2 2 2 2 1 2 2 2 2 1 1 2 2 2 1 1 1 1 1 1 1 1 1 1 1 1 1 1 1 1
2 2 1 1 1 1 1 1 1 1 1 2 2 2 2 2 2 1 2 1 1 2 2 1 2 3 3 2 1 1 1 1 1 1 1 1 1 1 1 1 1 1 1 1
2 1 1 1 1 0 1 2 1 1 1 2 2 2 1 1 2 1 1 1 2 2 1 2 3 3 3 1 1 1 1 1 1 1 1 1 1 1 1 1 1 1 1 1
2 1 1 1 1 1 2 1 1 1 1 1 1 1 1 1 1 1 1 1 2 2 1 2 3 3 2 1 1 1 1 1 1 1 1 1 1 1 1 1 1 1 1 1
2 1 2 2 2 1 1 1 1 1 1 1 1 1 1 1 1 1 1 1 1 2 1 1 1 2 1 1 1 1 1 1 1 1 1 1 0 1 1 1 1 1 1 1
1 1 1 1 1 1 1 1 1 1 1 1 1 1 0 1 1 1 1 1 1 1 1 1 1 1 1 1 1 1 1 1 1 1 1 1 0 0 1 1 1 1 1 1
Wind_Direction
275 278 272 255 237 215 219 229 238 265 275 285 310 315 316 325 328 328 327 329 332 328 328 331 339 333 326 315 329 37 134 191 212 220 133 135 151 125 17 276 299 7 37 346
281 262 264 266 255 231 232 244 257 280 285 295 318 323 327 328 327 324 323 325 329 331 330 332 337 341 343 344 351 89 142 236 200 113 93 127 103 80 44 25 50 42 45 7
279 312 313 271 239 213 216 221 221 245 263 318 325 326 322 322 323 319 320 324 325 325 326 332 335 339 340 346 15 75 80 48 43 78 73 45 54 56 22 4 25 50 64 61
284 317 255 241 19 174 206 247 246 270 297 320 317 313 315 325 331 325 326 326 328 333 339 341 344 348 359 15 33 50 51 41 37 62 58 32 53 52 26 20 27 93 81 68
251 269 271 279 351 62 206 282 262 267 294 313 327 327 318 343 343 331 329 326 326 327 330 339 345 357 17 24 36 37 33 33 33 62 56 43 42 36 40 42 30 60 75 71
237 255 261 283 350 20 103 286 322 306 301 320 350 337 308 343 342 338 341 340 339 340 346 348 348 19 31 22 35 32 23 24 26 49 56 50 43 36 35 33 41 54 64 64
231 247 266 316 353 84 133 275 329 327 313 327 299 263 298 328 334 338 345 346 350 353 354 353 5 34 33 28 24 21 26 31 28 32 43 49 58 51 35 35 48 58 61 52
199 225 256 110 115 176 235 308 329 329 327 313 300 306 320 329 335 342 345 346 350 354 354 359 16 38 34 21 14 29 35 35 28 20 22 34 55 48 34 35 72 73 64 41
201 218 241 173 199 229 303 305 312 317 319 316 311 313 321 328 334 338 340 345 352 356 2 7 16 37 40 11 22 32 35 30 25 22 30 35 41 52 37 27 59 65 63 49
266 267 259 234 266 297 297 288 305 313 311 315 310 315 322 327 331 335 344 349 354 5 10 3 11 21 26 13 24 36 31 20 19 24 25 22 17 15 37 29 32 43 44 33
254 275 295 271 253 271 289 308 318 324 320 314 314 316 322 327 332 336 345 351 360 8 6 357 6 12 10 17 36 38 24 16 13 20 26 26 23 18 7 16 3 357 12 41
232 234 225 267 299 292 291 292 296 311 323 329 326 318 325 325 330 336 341 350 360 1 357 353 3 4 2 10 20 29 18 13 13 20 22 24 30 29 25 28 26 17 15 2
251 290 277 288 305 341 306 306 313 320 314 318 330 329 331 330 336 344 345 349 347 343 344 347 355 355 353 3 9 15 15 4 7 8 5 3 7 31 27 21 23 26 25 17
258 307 290 293 296 313 319 329 346 356 343 332 328 336 341 337 337 336 329 329 335 345 343 342 348 347 353 13 20 14 8 360 357 358 349 347 355 11 25 18 8 12 11 16
253 248 255 296 323 338 348 5 359 339 338 337 342 339 334 329 324 324 327 336 348 351 344 346 349 345 355 16 20 8 360 4 8 359 349 345 351 7 19 20 19 3 359 6
258 258 267 280 285 303 335 342 312 310 320 323 330 325 317 316 320 327 336 343 343 331 329 337 336 335 354 13 19 14 17 10 4 2 1 1 7 14 15 18 15 8 2 355
185 240 258 276 281 290 285 278 274 287 305 312 314 320 332 342 337 333 334 334 322 310 316 327 323 337 358 12 26 21 16 13 7 7 11 2 1 2 2 3 359 359 345 338
212 220 218 228 249 271 290 300 298 295 294 300 320 334 340 332 314 313 320 328 335 336 337 335 340 354 1 12 25 23 13 9 9 7 2 358 349 346 353 356 1 357 342 347
213 221 242 260 262 249 264 281 290 293 307 321 324 315 307 302 298 303 317 332 336 331 332 342 354 4 357 6 12 31 24 6 353 355 358 348 350 352 356 6 4 359 348 3
187 196 203 290 4 233 259 280 294 308 311 313 309 311 314 313 315 318 327 313 294 289 310 343 359 352 345 354 9 27 23 8 358 353 354 350 342 342 343 353 4 358 360 1
192 185 189 219 285 281 250 245 245 283 303 304 280 279 286 299 307 308 314 309 312 326 343 351 357 336 335 354 12 26 21 5 356 347 343 342 343 344 343 340 344 353 360 355
195 194 207 224 253 292 298 274 246 266 293 299 296 293 298 306 312 317 292 264 295 341 358 347 335 340 353 5 20 24 15 353 337 331 334 325 323 326 331 337 341 344 349 345
193 197 202 215 235 266 297 287 259 248 255 270 279 285 286 287 288 292 305 312 327 345 354 342 339 347 357 10 16 17 2 337 318 311 309 307 304 310 320 330 330 327 326 320
182 190 201 193 165 189 271 273 263 257 255 269 272 272 276 300 315 309 303 340 357 352 353 340 347 350 355 6 6 355 333 316 306 305 310 311 310 313 320 324 324 324 323 316
181 181 174 169 190 227 242 245 263 274 278 283 293 297 289 277 280 313 340 339 338 354 347 335 341 344 345 336 338 329 315 306 306 310 306 307 309 322 326 323 322 323 318 310
181 198 210 214 216 220 210 204 243 254 253 278 297 304 318 331 339 340 343 342 346 348 350 340 333 334 333 330 334 340 338 324 325 332 329 332 359 0 340 336 332 323 320 317
176 185 201 230 222 207 198 204 225 240 236 238 265 277 299 325 354 1 1 8 2 349 343 342 338 332 331 331 333 342 351 352 353 357 359 7 24 13 341 331 320 318 317 315